AirNav   Everest Fuels
 
 523 users online  

NY40 Gentzke Aeronautical Park Airport
Holland, New York, USA

GOING TO HOLLAND?


FAA INFORMATION EFFECTIVE 16 JULY 2020

Location

FAA Identifier: NY40
Lat/Long: 42-36-38.2200N 078-35-44.0860W
42-36.637000N 078-35.734767W
42.6106167,-78.5955794
(estimated)
Elevation: 1750 ft. / 533 m (estimated)
Variation: 10W (1985)
From city: 4 miles SW of HOLLAND, NY
Time zone: UTC -4 (UTC -5 during Standard Time)
Zip code: 14080

Airport Operations

Airport use: Private use. Permission required prior to landing
Activation date: 11/1988
Control tower: no
ARTCC: CLEVELAND CENTER
FSS: BUFFALO FLIGHT SERVICE STATION
Attendance: UNATNDD
Wind indicator: yes
Segmented circle: no

Nearby radio navigation aids

VOR radial/distance  VOR name  Freq  Var
BUFr181/19.2BUFFALO VOR/DME116.4008W
JHWr050/34.4JAMESTOWN VOR/DME114.7007W

Airport Services

Runway Information

Runway E/W

Dimensions: 2000 x 100 ft. / 610 x 30 m
Surface: turf
RUNWAY E  RUNWAY W
Traffic pattern: leftleft
Obstructions: pline50 ft. trees, 500 ft. from runway

Airport Ownership and Management from official FAA records

Ownership: Privately-owned
Owner: GLENN D. GENTZKE
10661 CRUMP RD
HOLLAND, NY 14080
Phone 716 592-2023
Manager: GLENN D. GENTZKE
10661 CRUMP RD
HOLLAND, NY 14080
Phone 716 592-2023

Airport Operational Statistics

Aircraft based on the field: 3
Single engine airplanes: 3
    

Additional Remarks

FOR CD CTC CLEVELAND ARTCC AT 440-774-0490.

Instrument Procedures

There are no published instrument procedures at NY40.

Some nearby airports with instrument procedures:

9G0 - Buffalo Airfield (16 nm N)
KBUF - Buffalo Niagara International Airport (21 nm N)
KOLE - Cattaraugus County-Olean Airport (24 nm SE)
9G3 - Akron Airport/Jesson Field (25 nm N)
KDKK - Chautauqua County/Dunkirk Airport (31 nm W)
 
Loc | Ops | Rwys | IFR | FBO | Links
Com | Nav | Svcs | Stats | Notes
Area around NY40 (Gentzke Aeronautical Park Airport)
 
Road maps at: MapQuest Bing Google
 
Aerial photo
No photo
 
Sectional chart

 
Airport distance calculator
Flying to Gentzke Aeronautical Park Airport? Find the distance to fly.

From to NY40

Sunrise and sunset
Times for 05-Aug-2020
 Local
(UTC-4)
 Zulu
(UTC)
Morning civil twilight05:4109:41
Sunrise06:1210:12
Sunset20:2800:28
Evening civil twilight20:5900:59

Current date and time
Zulu (UTC)  05-Aug-2020 05:39:04
Local (UTC-4)  05-Aug-2020 01:39:04
 
METAR
KBUF 
20nm N 
050454Z 25008G16KT 4SM -RA BR FEW005 BKN010 OVC037 19/17 A2990 RMK AO2 SLP122 P0020 T01890172 402670183
KOLE 
25nm SE 
050515Z AUTO 24004KT 10SM SCT095 15/15 A2999 RMK AO2
KDKK 
31nm W 
050453Z AUTO 25009KT 10SM BKN018 BKN026 OVC034 19/16 A2994 RMK AO2 SLP136 T01940161 402500183 $
KGVQ 
32nm NE 
050456Z AUTO 25009KT 10SM BKN004 OVC010 18/17 A2990 RMK AO2 CIG 003V007 SLP120 T01780172 402390167
CWPC 
33nm NW 
050500Z AUTO 29011KT 18/16 RMK AO1 PK WND 29017/0404 SLP134 T01750164 51016
KIAG 
34nm NW 
050506Z AUTO 29007KT 10SM FEW021 BKN120 18/16 A2990 RMK AO2 T01780161
KDSV 
39nm E 
050454Z AUTO 15003KT 10SM OVC095 19/18 A2992 RMK AO2 SLP136 T01940178 402500189
TAF
KBUF 
20nm N 
050244Z 0503/0524 VRB04KT 6SM -SHRA BKN050 FM050430 26008KT P6SM SCT025 BKN035 FM051000 26008KT P6SM SCT035 FM051500 26012G20KT P6SM SCT070
NOTAMs
Click for the latest NOTAMs
NOTAMs are issued by the DoD/FAA and will open in a separate window not controlled by AirNav.

 

 
 

Would you like to see your business listed on this page?

 If your business provides an interesting product or service to pilots, flight crews, aircraft, or users of the Gentzke Aeronautical Park Airport, you should consider listing it here.  To start the listing process, click on the button below
 
Add a business
 

Other Pages about Gentzke Aeronautical Park Airport

Update a link
 
Copyright © AirNav, LLC. All rights reserved. Privacy Policy  Contact